Powrót do katalogu

STARLINK-36091

AktywnyŁącznośćVLEO
NORAD 66848·PAYLOAD·🇺🇸 United States

Wystrzelony Dec 2, 2025 z Cape Canaveral Space Force Station

Loading…

Następne Przeloty (najbliższe 24 godziny)

TLE

ŚwieżeSource: CelesTrak SupGP

Epoka: Sep 15, 2026, 02:38 UTC

1 66848C 25281A   26258.11020833  .00031838  00000+0  11533-2 0  2586
2 66848  43.0037 354.0686 0001485 266.3002 359.8789 15.27559512    12

Śledź STARLINK-36091 w czasie rzeczywistym z AllMySat

Download on the App Store